[[{"header":{"parameterUnit":"m.s-1","parameterCategory":1,"la1":30.2991,"la2":30.254,"lo1":-89.0895,"lo2":-89.0444,"dy":0.0017,"dx":0.0017,"nx":28,"ny":28,"refTime":"2025-09-11T21:00:00:Z","depth":0,"parameterNumber":2,"parameterNumberName":"U-component_of_WINDS"},"data":[0,0,0,0,0,0,0,0,0,0,0,0,0,0,0,0,0,0,0,0,0,0,0,0,0,0,0,0,0,0,0,0,0,0,0,0,0,0,0,0,0,0,0,0,0,0,0,0,0,0,0,0,0,0,0,0,0,0,1.2722,1.2722,0,1.2719,1.2719,1.2719,1.2659,1.2658,1.2656,1.2655,1.2653,1.2654,1.2655,0,0,0,0,0,0,0,0,0,0,0,0,0,1.2677,1.2678,1.2722,1.2722,1.2722,1.2719,1.2719,1.2719,1.266,1.2658,1.2656,1.2654,1.2652,1.2654,1.2655,0,0,0,0,0,0,0,0,0,0,0,0,0,1.2688,1.2678,1.2722,1.2692,1.2689,1.2719,1.2719,1.2719,1.266,1.2658,1.2655,1.2653,1.2652,1.2654,1.2656,1.2714,0,0,1.2662,1.2663,0,0,0,0,0,0,0,0,1.2687,1.2689,1.2696,1.2694,1.2691,1.2687,1.2702,1.2717,1.2661,1.2671,1.2655,1.2652,1.2666,1.2667,1.2671,1.2714,1.2714,1.2662,1.2663,1.2664,1.2665,0,0,0,0,0,0,0,1.2686,1.2689,1.2721,1.2696,1.2693,1.2679,1.2678,1.2705,1.2681,1.267,1.2666,1.2666,1.2664,1.2669,1.2671,1.2714,1.2662,1.2664,1.2665,1.2666,1.2805,1.2807,0,0,0,0,0,0,1.269,1.2689,1.2721,1.2721,1.2683,1.2681,1.268,1.2691,1.2681,1.2677,1.2668,1.2663,1.2667,1.2668,1.267,1.2738,1.2664,1.2666,1.2667,1.2802,1.2805,1.2808,0,0,0,0,0,0,1.2689,1.2693,1.2721,1.2704,1.2706,1.2685,1.2697,1.2692,1.2697,1.2679,1.2675,1.2678,1.2665,1.2667,1.2704,1.2737,1.2667,1.2669,1.2799,1.2803,1.2806,1.2874,0,0,0,0,0,0,1.2688,1.2693,1.2715,1.2704,1.2707,1.2754,1.2699,1.2693,1.2701,1.2694,1.2687,1.2684,1.2664,1.2701,1.2706,1.2739,1.267,1.2796,1.2801,1.2805,1.2869,1.288,1.2889,0,0,0,0,0,1.2686,1.2734,1.2716,1.2721,1.2734,1.2756,1.2758,1.2733,1.2704,1.2725,1.2714,1.2684,1.2733,1.2705,1.271,1.2744,1.2794,1.28,1.2805,1.2865,1.2878,1.2889,0,0,0,0,0,0,1.2749,1.2732,1.2712,1.2758,1.2759,1.2746,1.2773,1.2748,1.2757,1.2751,1.272,1.2719,1.276,1.2756,1.2725,1.28,1.2758,1.2765,1.2802,1.2814,1.2824,1.2824,1.2672,0,0,0,0,0,1.2769,1.2788,1.2772,1.2814,1.2816,1.2794,1.2803,1.2784,1.2784,1.2784,1.2775,1.2777,1.2792,1.2803,1.2816,1.2868,1.2866,1.2894,1.2904,1.2913,1.2919,1.2946,1.2959,1.2826,1.2826,1.2826,0,0,1.2808,1.2802,1.2816,1.2827,1.2825,1.2846,1.2795,1.2819,1.2835,1.2788,1.2821,1.2815,1.2814,1.2859,1.2878,1.2856,1.2955,1.292,1.2927,1.2928,1.2953,1.2966,1.2977,1.283,1.2829,1.2828,0,0,1.2892,1.2888,1.2923,1.2923,1.2921,1.2907,1.2915,1.2906,1.29,1.2933,1.2899,1.2917,1.2944,1.2945,1.2949,1.3033,1.3006,1.3039,1.3091,1.3118,1.3129,1.3138,1.3168,1.3179,1.3045,1.3045,1.3045,0,1.2941,1.2971,1.2944,1.2971,1.2977,1.2935,1.297,1.2971,1.2974,1.2979,1.2955,1.2989,1.2985,1.3029,1.305,1.3055,1.3064,1.3039,1.313,1.3138,1.3147,1.3175,1.3186,1.3049,1.3049,1.3048,1.3048,0,1.3032,1.3054,1.3082,1.3086,1.3095,1.3126,1.3104,1.3116,1.3097,1.3085,1.312,1.3114,1.3126,1.3135,1.3116,1.3177,1.3163,1.3135,1.3092,1.3164,1.319,1.32,1.3055,1.3053,1.3052,1.3051,0,0,1.3155,1.3143,1.3154,1.3156,1.3151,1.3167,1.3196,1.3207,1.3219,1.3223,1.3246,1.3271,1.3245,1.3249,1.323,1.3254,1.3321,1.3223,1.3222,1.3241,1.3388,1.3409,1.3422,1.3303,1.3305,1.3307,1.3388,0,1.3235,1.3284,1.326,1.3312,1.3331,1.3293,1.3318,1.3318,1.3309,1.3324,1.3313,1.3331,1.3295,1.3297,1.3319,1.3309,1.335,1.3302,1.3325,1.3327,1.3327,1.3436,1.3458,1.3535,1.3398,1.34,1.3401,0,1.3335,1.3343,1.3396,1.3388,1.3396,1.3419,1.3428,1.3443,1.3442,1.3433,1.3439,1.3415,1.3443,1.3401,1.3439,1.3407,1.3415,1.3412,1.3414,1.3415,1.3368,1.344,1.3559,1.357,1.3417,1.3416,1.3414,0,1.3419,1.3443,1.3478,1.348,1.3472,1.3489,1.3487,1.3484,1.3492,1.35,1.3505,1.3516,1.3522,1.3532,1.3511,1.3482,1.3553,1.3508,1.3546,1.3547,1.3563,1.3562,1.3685,1.3569,1.3568,1.3568,1.3568,0,1.351,1.3545,1.3515,1.3537,1.3574,1.3547,1.3585,1.3578,1.3577,1.3596,1.3564,1.3583,1.3555,1.3572,1.3556,1.3591,1.3594,1.3587,1.3583,1.359,1.3591,1.3595,1.3589,1.3571,1.357,1.357,1.3569,0,1.361,1.3591,1.3627,1.3617,1.3615,1.3643,1.3634,1.3654,1.3642,1.3668,1.3672,1.3654,1.3672,1.3652,1.3669,1.3658,1.3705,1.3692,1.3705,1.3701,1.374,1.3737,1.387,1.3886,1.376,1.3761,1.3762,0,1.3669,1.3695,1.3687,1.3698,1.3698,1.3716,1.3724,1.3699,1.3709,1.3711,1.3731,1.3746,1.3757,1.3788,1.3776,1.3789,1.3776,1.3822,1.3778,1.3785,1.3777,1.3775,1.3778,1.3831,1.3832,1.3833,1.3834,0,1.3777,1.3767,1.378,1.3791,1.3802,1.3809,1.3813,1.3824,1.3798,1.3811,1.3829,1.3838,1.3855,1.3871,1.388,1.3878,1.3852,1.3849,1.3858,1.3866,1.3872,1.3869,1.3729,1.3845,1.3844,1.3844,1.3843,1.3843,1.3858,1.3879,1.3877,1.3893,1.3894,1.3899,1.3917,1.3908,1.3923,1.3934,1.3919,1.3941,1.3941,1.3951,1.3952,1.3969,1.395,1.3963,1.3967,1.397,1.3976,1.3869,1.3971,1.397,1.397,1.397,1.3969,0,1.3964,1.3961,1.3976,1.3984,1.3997,1.3971,1.3975,1.3988,1.4008,1.4009,1.4021,1.4042,1.4057,1.4047,1.406,1.4076,1.4065,1.408,1.4079,1.4079,1.3993,1.3983,1.4089,1.4089,1.4089,1.4089,1.4089,1.4089,1.4021,1.4055,1.4045,1.4079,1.4076,1.4097,1.4102,1.4107,1.4108,1.4133,1.4145,1.4139,1.4136,1.4148,1.4161,1.4158,1.4164,1.4184,1.4177,1.4097,1.4085,1.4073,1.4064,1.4186,1.4186,1.4261,1.4262,1.4262]},{"header":{"parameterUnit":"m.s-1","parameterCategory":1,"la1":30.2991,"la2":30.254,"lo1":-89.0895,"lo2":-89.0444,"dy":0.0017,"dx":0.0017,"nx":28,"ny":28,"refTime":"2025-09-11T21:00:00:Z","depth":0,"parameterNumber":3,"parameterNumberName":"V-component_of_WINDS"},"data":[0,0,0,0,0,0,0,0,0,0,0,0,0,0,0,0,0,0,0,0,0,0,0,0,0,0,0,0,0,0,0,0,0,0,0,0,0,0,0,0,0,0,0,0,0,0,0,0,0,0,0,0,0,0,0,0,0,0,-1.115,-1.1151,0,-1.1251,-1.1253,-1.1254,-1.1315,-1.1316,-1.1316,-1.1316,-1.142,-1.1423,-1.1425,0,0,0,0,0,0,0,0,0,0,0,0,0,-1.1012,-1.1014,-1.115,-1.1151,-1.1153,-1.1251,-1.1253,-1.1254,-1.1315,-1.1316,-1.1316,-1.1316,-1.142,-1.1423,-1.1426,0,0,0,0,0,0,0,0,0,0,0,0,0,-1.1088,-1.1015,-1.115,-1.1195,-1.12,-1.1251,-1.1253,-1.1254,-1.1315,-1.1316,-1.1316,-1.1317,-1.1419,-1.1422,-1.1426,-1.144,0,0,-1.1437,-1.1439,0,0,0,0,0,0,0,0,-1.1084,-1.1093,-1.1187,-1.1192,-1.1198,-1.1271,-1.1242,-1.1317,-1.1315,-1.1272,-1.1316,-1.1317,-1.137,-1.1378,-1.1396,-1.1445,-1.1449,-1.1438,-1.144,-1.1442,-1.1443,0,0,0,0,0,0,0,-1.1078,-1.1089,-1.119,-1.1189,-1.1195,-1.1211,-1.1222,-1.1257,-1.1317,-1.1275,-1.128,-1.1291,-1.1373,-1.1392,-1.1399,-1.1451,-1.1438,-1.1441,-1.1443,-1.1445,-1.1518,-1.1517,0,0,0,0,0,0,-1.1066,-1.1084,-1.1187,-1.1193,-1.1141,-1.1213,-1.1226,-1.1247,-1.1317,-1.1328,-1.1291,-1.1294,-1.1386,-1.1395,-1.1403,-1.1425,-1.1442,-1.1445,-1.1447,-1.1518,-1.1518,-1.1517,0,0,0,0,0,0,-1.1062,-1.1074,-1.1183,-1.114,-1.1155,-1.1215,-1.1239,-1.1249,-1.1268,-1.1329,-1.134,-1.1299,-1.1387,-1.1398,-1.1431,-1.1429,-1.1447,-1.145,-1.1518,-1.1518,-1.1518,-1.1468,0,0,0,0,0,0,-1.1058,-1.1073,-1.1078,-1.114,-1.1157,-1.1208,-1.1238,-1.1251,-1.1274,-1.1279,-1.1339,-1.135,-1.1388,-1.1425,-1.1434,-1.1435,-1.1453,-1.1519,-1.1518,-1.1518,-1.147,-1.1466,-1.1462,0,0,0,0,0,-1.1053,-1.106,-1.1078,-1.109,-1.1165,-1.1208,-1.1218,-1.1262,-1.1274,-1.128,-1.1319,-1.1348,-1.1428,-1.1428,-1.1439,-1.144,-1.1519,-1.1518,-1.1518,-1.1471,-1.1466,-1.1462,0,0,0,0,0,0,-1.0996,-1.1069,-1.109,-1.1117,-1.1156,-1.1218,-1.1227,-1.1255,-1.1291,-1.1294,-1.1347,-1.136,-1.1388,-1.1418,-1.1416,-1.1458,-1.1477,-1.1478,-1.1438,-1.1433,-1.143,-1.1422,-1.1456,0,0,0,0,0,-1.0987,-1.1015,-1.1077,-1.1095,-1.1114,-1.1167,-1.1187,-1.1218,-1.126,-1.1277,-1.1319,-1.1359,-1.1394,-1.1415,-1.1451,-1.1475,-1.1489,-1.1481,-1.1478,-1.1474,-1.1475,-1.1491,-1.1488,-1.1515,-1.1515,-1.1515,0,0,-1.0968,-1.1011,-1.1025,-1.1085,-1.1118,-1.1147,-1.118,-1.1209,-1.1231,-1.1282,-1.1315,-1.1347,-1.1396,-1.1425,-1.144,-1.1451,-1.1471,-1.1473,-1.147,-1.1473,-1.149,-1.1487,-1.1485,-1.1515,-1.1515,-1.1515,0,0,-1.0947,-1.0983,-1.1002,-1.1035,-1.1086,-1.1122,-1.1126,-1.1185,-1.1209,-1.1243,-1.1282,-1.131,-1.1368,-1.1401,-1.1426,-1.142,-1.1448,-1.143,-1.141,-1.1425,-1.1423,-1.1421,-1.142,-1.1418,-1.1431,-1.143,-1.143,0,-1.0917,-1.0961,-1.1008,-1.1035,-1.106,-1.1108,-1.1128,-1.1158,-1.1218,-1.1235,-1.1246,-1.1321,-1.1357,-1.1395,-1.1394,-1.1412,-1.1419,-1.1423,-1.1419,-1.1418,-1.1417,-1.1416,-1.1416,-1.1428,-1.1428,-1.1429,-1.1429,0,-1.0922,-1.0952,-1.0962,-1.1018,-1.1045,-1.1068,-1.1119,-1.1141,-1.1169,-1.1204,-1.1239,-1.1285,-1.133,-1.1342,-1.137,-1.1384,-1.1389,-1.1409,-1.1429,-1.1412,-1.1412,-1.1412,-1.1424,-1.1425,-1.1426,-1.1427,0,0,-1.0868,-1.0951,-1.0953,-1.098,-1.1041,-1.1065,-1.1091,-1.1136,-1.1154,-1.1194,-1.1217,-1.1266,-1.1286,-1.1314,-1.1346,-1.1359,-1.1353,-1.1378,-1.138,-1.1372,-1.1372,-1.1356,-1.1355,-1.1372,-1.1372,-1.1372,-1.1368,0,-1.0856,-1.0905,-1.0948,-1.0981,-1.101,-1.1057,-1.108,-1.112,-1.1153,-1.1183,-1.1221,-1.1255,-1.1277,-1.1295,-1.131,-1.135,-1.1353,-1.1351,-1.1395,-1.1396,-1.1381,-1.1355,-1.1339,-1.1333,-1.1368,-1.1368,-1.1369,0,-1.0849,-1.0888,-1.0923,-1.0982,-1.0996,-1.1015,-1.1061,-1.1089,-1.1135,-1.1159,-1.1191,-1.1225,-1.1256,-1.1273,-1.1316,-1.1314,-1.1334,-1.1357,-1.1358,-1.1363,-1.1381,-1.136,-1.1332,-1.1331,-1.1369,-1.1369,-1.1369,0,-1.0806,-1.0867,-1.0897,-1.0918,-1.0987,-1.1,-1.1029,-1.1077,-1.1101,-1.1141,-1.1158,-1.12,-1.1224,-1.1256,-1.1302,-1.131,-1.1341,-1.1361,-1.1362,-1.1361,-1.1366,-1.1365,-1.134,-1.1379,-1.1379,-1.1379,-1.1379,0,-1.0789,-1.0809,-1.0878,-1.0896,-1.0921,-1.0971,-1.0994,-1.1028,-1.107,-1.1096,-1.1139,-1.1162,-1.1221,-1.1252,-1.1288,-1.1319,-1.1329,-1.135,-1.1359,-1.1346,-1.1343,-1.136,-1.1361,-1.1379,-1.1379,-1.1379,-1.1379,0,-1.0745,-1.0792,-1.0827,-1.089,-1.0906,-1.0921,-1.0976,-1.0996,-1.1032,-1.1065,-1.1075,-1.1133,-1.1172,-1.122,-1.1275,-1.1299,-1.1326,-1.134,-1.131,-1.1316,-1.1314,-1.1313,-1.1299,-1.13,-1.1337,-1.1337,-1.1337,0,-1.073,-1.0747,-1.0812,-1.0832,-1.086,-1.0893,-1.0918,-1.0969,-1.0994,-1.1049,-1.1063,-1.1105,-1.1141,-1.1202,-1.1249,-1.1291,-1.1306,-1.1299,-1.1313,-1.1299,-1.1307,-1.1305,-1.1307,-1.1294,-1.1294,-1.1293,-1.1293,0,-1.07,-1.0723,-1.0757,-1.0801,-1.083,-1.0866,-1.0905,-1.0919,-1.0978,-1.1004,-1.1045,-1.1073,-1.1129,-1.1171,-1.1219,-1.1251,-1.1282,-1.1288,-1.1291,-1.1277,-1.1259,-1.1269,-1.13,-1.1288,-1.1289,-1.1289,-1.1289,-1.1289,-1.0671,-1.0688,-1.0736,-1.0774,-1.0809,-1.0844,-1.0866,-1.0905,-1.094,-1.0989,-1.1017,-1.1057,-1.1105,-1.1173,-1.1204,-1.1236,-1.1248,-1.1251,-1.1252,-1.1252,-1.1248,-1.1254,-1.1245,-1.1245,-1.1246,-1.1246,-1.1246,0,-1.0643,-1.0676,-1.0711,-1.0763,-1.0793,-1.082,-1.0865,-1.0888,-1.0922,-1.0964,-1.0999,-1.1046,-1.1087,-1.1138,-1.1183,-1.1199,-1.1214,-1.1209,-1.1208,-1.1215,-1.1235,-1.1228,-1.1196,-1.1196,-1.1196,-1.1196,-1.1196,-1.1196,-1.0631,-1.0662,-1.0691,-1.074,-1.0774,-1.0813,-1.0836,-1.087,-1.0903,-1.0954,-1.0988,-1.1021,-1.1067,-1.1116,-1.1155,-1.1169,-1.1183,-1.1173,-1.1192,-1.1209,-1.1213,-1.1218,-1.1212,-1.1176,-1.1176,-1.1169,-1.1169,-1.1169]}]]